Location: Alta
(39.2070°N, 120.8111°W)
Time: 05:24:35
(UTC+00:00)

Tiangong - Visible Passes

Search period start: 28 November 2022 00:00
Search period end: 08 December 2022 00:00
Orbit: 386 x 393 km, 41.5° (Epoch: 27 November)

Date Brightness Start Highest point End Pass type
(mag) Time Alt. Az. Time Alt. Az. Time Alt. Az.
28 Nov 0.1 02:00:21 10° S 02:02:08 14° SE 02:02:25 14° SE visible
29 Nov -0.5 02:37:41 10° SW 02:39:38 30° SSW 02:39:38 30° SSW visible
30 Nov -0.6 01:40:02 10° SSW 01:42:44 26° SSE 01:44:25 17° ESE visible
30 Nov 1.3 03:16:18 10° WSW 03:16:44 13° W 03:16:44 13° W visible
01 Dec -2.2 02:18:12 10° WSW 02:21:23 73° SSE 02:21:27 72° SSE visible
02 Dec -1.5 01:20:13 10° SW 01:23:17 46° SSE 01:26:05 12° E visible
02 Dec 0.4 02:57:02 10° W 02:58:24 23° W 02:58:24 23° W visible
03 Dec -2.2 01:58:47 10° W 02:01:59 76° NNW 02:02:59 40° ENE visible
04 Dec -0.7 02:37:40 10° W 02:39:50 36° WNW 02:39:50 36° WNW visible
05 Dec -1.9 01:39:20 10° W 01:42:29 59° N 01:44:21 22° ENE visible
05 Dec 1.3 03:16:26 10° WNW 03:16:39 12° WNW 03:16:39 12° WNW visible
06 Dec -1.9 02:18:06 10° WNW 02:21:10 56° N 02:21:10 56° N visible
07 Dec -1.8 01:19:44 10° W 01:22:52 53° N 01:25:42 12° ENE visible
07 Dec 0.4 02:56:45 10° WNW 02:58:00 22° WNW 02:58:00 22° WNW visible
